Tracking 29892 objects as of 21-Nov-2024
HD Live streaming from Space Station
objects crossing your sky now

STARLINK-4674

Track STARLINK-4674 now!
10-day predictions
STARLINK-4674 is classified as:


NORAD ID: 53591
Int'l Code: 2022-104D
Perigee: 545.8 km
Apogee: 548.0 km
Inclination: 53.2 °
Period: 95.4 minutes
Semi major axis: 6917 km
RCS: Unknown
Launch date: August 28, 2022
Source: United States (US)
Launch site: AIR FORCE EASTERN TEST RANGE (AFETR)
Your satellite tracking list
Your tracking list is empty




NASA's NSSDC Master Catalog

Two Line Element Set (TLE):
1 53591U 22104D   24324.95509887  .00001359  00000-0  10344-3 0  9991
2 53591  53.2166 215.4484 0001552  65.2882 294.8272 15.08839899124292
Source of the keplerian elements: AFSPC